User: anonymous   Login
Location: Caltech
(34.1382°N, 118.1253°W)
Time: 21:57:14
(UTC-08:00)
Language:

ADEOS II - Orbit

View from above orbital plane
View from above orbital plane
View from above satellite
View from above satellite

Ground track
Ground track

The orbit data is extracted from the following two-line orbital elements,

1 27597U 02056A   15063.99720622  .00000397  00000-0  17974-3 0  9995
2 27597 098.2828 062.9419 0000252 087.9926 284.5467 14.27021151636296
Epoch (UTC): 04 March 2015 23:55:58
Eccentricity: 0.0000252
inclination: 98.2828°
perigee height: 801 km
apogee height: 802 km
right ascension of ascending node: 62.9419°
argument of perigee: 87.9926°
revolutions per day: 14.27021151
mean anomaly at epoch: 284.5467°
orbit number at epoch: 63629

The dashed part of the orbit path shows where the satellite is in the earth's shadow,  

DLR